Regional Weather Roundup
Issued by NWS

Home | Current Version | Previous Version | Text Only | Print | Product List | Glossary Off
Versions: 1 2 3 4 5 6 7 8 9 10 11 12 13 14 15 16 17 18 19 20 21 22 23 24 25 26 27 28 29 30 31 32 33 34 35 36 37 38 39 40 41 42 43 44 45 46 47 48 49 50

462
ASUS43 KMPX 100101
RWRMN
WEATHER ROUNDUP FOR MINNESOTA
NATIONAL WEATHER SERVICE TWIN CITIES/CHANHASSEN MN
700 PM CST TUE FEB 09 2016


NOTE: "FAIR" INDICATES FEW OR NO CLOUDS BELOW 12,000 FEET WITH NO
SIGNIFICANT WEATHER AND/OR OBSTRUCTIONS TO VISIBILITY. N/A MEANS
CURRENT SKY AND/OR WEATHER CONDITIONS ARE NOT AVAILABLE.

MNZ060>063-068>070-100200-
   Twin Cities Metro

CITY           SKY/WX    TMP DP  RH WIND       PRES   REMARKS
TWIN CITIES    CLEAR     13  -2  51 NW13      30.15R WCI  -2
ST PAUL        CLEAR     12  -2  53 NW14      30.16R WCI  -3
CRYSTAL        CLEAR     13  -3  49 NW10      30.14R WCI   0
BLAINE         CLEAR     14   0  52 NW10G17   30.13S WCI   1
LAKEVILLE      CLEAR      9   0  66 NW8       30.13R WCI  -4
EDEN PRAIRIE   CLEAR     13  -2  51 NW8       30.14R WCI   2
SOUTH ST PAUL  CLEAR     14  -2  50 NW10G18   30.14R WCI   1
LAKE ELMO      FAIR      12   0  57 NW6       30.13S WCI   3
$$
MNZ001>005-007-008-013>017-022>024-027-028-100200-
   Northwest Minnesota

CITY           SKY/WX    TMP DP  RH WIND       PRES   REMARKS
BEMIDJI        CLEAR     -3  -8  78 NW6       30.17S WCI -15
HALLOCK        CLOUDY     1  -4  78 NW8       30.28R WCI -12
ROSEAU         CLOUDY     0  -8  71 W6        30.23F WCI -12
WARROAD        CLOUDY     1  -8  66 NW5       30.22F WCI  -8
THIEF RVR FALL CLOUDY     1  -2  85 NW7       30.23F WCI -11
CROOKSTON      CLEAR      3  -2  78 N9        30.26F WCI -11
FOSSTON        CLOUDY    -6  -9  84 CALM      30.20F
DETROIT LAKES  CLOUDY     5   1  85 N6        30.19F WCI  -6
MOORHEAD       CLOUDY    10   3  72 N9        30.25F WCI  -2
PARK RAPIDS    CLEAR      3  -6  66 NW8       30.16R WCI -10
MAHNOMEN       FAIR      -1  -5  84 NW7       30.21F WCI -15
$$
MNZ006-009>011-018-025>026-100200-
   North Central Minnesota

CITY           SKY/WX    TMP DP  RH WIND       PRES   REMARKS
BAUDETTE       CLOUDY    -2 -10  69 NW6       30.18F WCI -14
FLAG ISLAND    CLOUDY     0  -8  71 N5        30.21S WCI -10
INTL FALLS     CLEAR     -3  -9  75 NW6       30.16R WCI -15
WASKISH        CLOUDY     0  -6  78 NW3       30.19S
LONGVILLE      CLEAR      3  -6  66 NW6       30.16S WCI  -8
GRAND RAPIDS   CLEAR      3  -8  60 NW13      30.12R WCI -14
CRANE LAKE     CLEAR     -6  -9  84 CALM      30.17R
ORR            CLEAR     -4  -9  77 CALM      30.11R
COOK           CLEAR      0  -8  71 N3        30.12R
WALKER         FAIR       4  -4  69 NW10      30.16S WCI -12
$$
MNZ012-019>021-037-100200-
   Northeast Minnesota

CITY           SKY/WX    TMP DP  RH WIND       PRES   REMARKS
DULUTH         PTCLDY     4  -6  63 NW13      30.05S WCI -13
ELY            CLOUDY     0  -6  78 NW5       30.08R WCI -10
HIBBING        CLEAR      2  -7  66 N12       30.10R WCI -15
EVELETH        CLEAR      3  -6  66 N6        30.10R WCI  -8
DULUTH HARBOR  CLEAR     10  -2  56 NW13G21   30.15R WCI  -5
TWO HARBORS    CLEAR      7  -4  61 NW6       30.06R WCI  -3
SILVER BAY     CLEAR      3  -6  66 NW6       30.05S WCI  -8
GRAND MARAIS     N/A      6  -6  57 VRB5      30.10S WCI  -3
G MARAIS ARPRT LGT SNOW   0  -9  65 NW12G21   29.96S WCI -18
$$
MNZ029>031-032-039>041-046>048-054>057-064-100200-
   West Central Minnesota

CITY           SKY/WX    TMP DP  RH WIND       PRES   REMARKS
FERGUS FALLS   CLOUDY     9   1  72 N7        30.25F WCI  -3
WHEATON        CLOUDY    14   9  79 N6        30.25F WCI   5
MORRIS         CLOUDY    12   7  79 NW13G18   30.20S WCI  -3
ALEXANDRIA     CLEAR      8  -1  66 NW9       30.17S WCI  -5
ELBOW LAKE     CLOUDY    11   4  72 NW9       30.21S WCI  -2
WADENA         CLEAR      3  -2  78 NW8       30.17S WCI -10
GLENWOOD       CLEAR      9   0  66 NW12      30.17S WCI  -6
APPLETON       CLOUDY    16   9  73 N9        30.23R WCI   4
BENSON         CLOUDY    14   5  67 N13       30.20F WCI   0
ORTONVILLE     CLOUDY    14   9  79 N8        30.22S WCI   3
MADISON        CLOUDY    18  10  73 N9        30.22S WCI   6
WILLMAR        FAIR      14   7  73 NW12      30.19S WCI   0
$$
MNZ033>034-036-042>043-049>051-058-059-100200-
   Central Minnesota

CITY           SKY/WX    TMP DP  RH WIND       PRES   REMARKS
ST CLOUD       CLEAR     11  -2  56 NW7       30.15S WCI   0
SAUK CENTRE    FAIR       8   0  69 NW10      30.17S WCI  -6
PAYNESVILLE    CLEAR     10   2  68 NW7       30.17S WCI   0
AITKIN         CLEAR      7  -6  56 NW6       30.13R WCI  -3
PINE RIVER     CLEAR      7  -2  66 NW6       30.18S WCI  -3
BRAINERD       CLEAR      7  -5  57 N9        30.15S WCI  -7
STAPLES        CLEAR      3  -2  78 NW7       30.16S WCI  -9
LONG PRAIRIE   FAIR       9   1  72 W10       30.16S WCI  -6
LITTLE FALLS   CLEAR     12  -2  52 NW3       30.16S
LITCHFIELD     CLEAR     12   3  67 NW7       30.17S WCI   2
BUFFALO        CLEAR     12  -1  56 W6        30.16S WCI   3
MAPLE LAKE     CLEAR     12   2  63 NW7       30.16S WCI   2
$$
MNZ037-044-045-052-053-100200-
   East Central Minnesota

CITY           SKY/WX    TMP DP  RH WIND       PRES   REMARKS
PRINCETON      CLEAR     10  -2  56 NW5       30.14R WCI   2
MORA           CLEAR     10  -4  52 NW9       30.15R WCI  -2
CAMBRIDGE      CLEAR     10  -2  56 CALM      30.13R
RUSH CITY      PTCLDY     9  -3  59 NW8       30.13S WCI  -3
MOOSE LAKE     CLEAR      9  -6  52 NW6       30.10R WCI  -1
HINCKLEY       FAIR      10  -4  52 NW7       30.12R WCI   0
CLOQUET        CLEAR      7  -8  51 NW12G17   30.08R WCI  -9
MCGREGOR       CLEAR      7  -4  61 NW9       30.13R WCI  -7
$$
MNZ071>073-080-081-089-090-097-098-100200-
   Southwest Minnesota

CITY           SKY/WX    TMP DP  RH WIND       PRES   REMARKS
MONTEVIDEO     CLOUDY    16   9  73 N14       30.23S WCI   1
GRANITE FALLS  CLOUDY    18  10  73 NW9G17    30.22S WCI   6
CANBY          CLOUDY    21  15  76 NW7       30.22S WCI  13
MARSHALL       CLOUDY    17  10  74 NW15      30.20S WCI   2
REDWOOD FALLS  CLOUDY    16   7  67 NW14      30.19S WCI   2
OLIVIA         PTCLDY    16   9  73 NW13      30.18S WCI   2
PIPESTONE      CLOUDY    21   9  58 NW5       30.17S WCI  15
WINDOM         CLEAR     16   9  73 NW16      30.16S WCI   0
WORTHINGTON    CLOUDY    18   9  68 NW10      30.18S WCI   6
JACKSON        CLOUDY    18   9  68 NW17G24   30.15S WCI   2
TRACY          CLOUDY    18  12  77 NW9       30.19S WCI   7
SLAYTON        CLOUDY    17  13  82 NW9       30.17S WCI   6
$$
MNZ065>067-074>077-082>085-091>093-100200-
   South Central Minnesota

CITY           SKY/WX    TMP DP  RH WIND       PRES   REMARKS
MANKATO        CLEAR     12   1  62 NW15      30.15S WCI  -4
NEW ULM        CLEAR     12   5  73 NW17      30.17R WCI  -5
ST JAMES       CLEAR     12   9  85 NW13      30.18S WCI  -3
FAIRMONT       CLEAR     12   5  73 NW15      30.15R WCI  -4
GLENCOE        CLEAR     14   6  70 NW12      30.15S WCI   0
FARIBAULT        N/A     10   0  61 NW12G21   30.13S WCI  -4
OWATONNA       CLEAR      9   0  66 NW9       30.12R WCI  -5
WASECA         CLEAR     12   3  67 NW13      30.14S WCI  -3
ALBERT LEA     CLEAR     10   1  67 NW12G20   30.11R WCI  -4
$$
MNZ078>079-086>088-094>096-100200-
   Southeast Minnesota

CITY           SKY/WX    TMP DP  RH WIND       PRES   REMARKS
ROCHESTER      CLEAR      8  -2  63 NW16      30.06R WCI -10
RED WING       CLEAR     12  -6  44 NW14G20   30.10F WCI  -3
STANTON        CLEAR     11  -1  57 NW9       30.12R WCI  -1
DODGE CENTER   PTCLDY     9   0  66 NW16      30.06S WCI  -9
WINONA         PTCLDY    14   3  62 NW12      30.10R WCI   0
AUSTIN         CLEAR      9   1  72 NW13G18   30.08S WCI  -7
PRESTON        CLEAR      7  -3  64 NW9       30.06R WCI  -6
$$
ABBREVIATIONS USED IN REMARKS
   TC - TEMPERATURES IN CELSIUS
  WCI - WIND CHILL INDEX
   HX - HEAT INDEX
  VSB - VISIBILITY
$$




USA.gov is the U.S. government's official web portal to all federal, state and local government web resources and services.